Regional Weather Roundup
Issued by NWS Mobile, AL

Home | Current Version | Previous Version | Text Only | Print | Product List | Glossary On
Versions: 1 2 3 4 5 6 7 8 9 10 11 12 13 14 15 16 17 18 19 20 21 22 23 24 25 26 27 28 29 30 31 32 33 34 35 36 37 38 39 40 41 42 43 44 45 46 47 48 49 50
000
ASUS44 KMOB 302016
RWRMOB
REGIONAL WEATHER ROUNDUP
NATIONAL WEATHER SERVICE MOBILE AL
300 PM CDT THU JUL 30 2015

ALZ061>064-302100-
COASTAL ALABAMA


CITY           SKY/WX    TMP DP  RH WIND       PRES   REMARKS
MOBILE REG APT MOSUNNY   95  75  52 N14       29.94F HX 107
BROOKLEY FIELD MOSUNNY   96  76  52 N9        29.93F HX 109
GULF SHORES    MOCLDY    92  80  67 S7        29.92F HX 111

$$

ALZ051>060-302100-
INTERIOR SOUTHWEST AND SOUTH CENTRAL ALABAMA


CITY           SKY/WX    TMP DP  RH WIND       PRES   REMARKS
ANDALUSIA/OPP  MOSUNNY  100  73  41 VRB7      29.91F HX 110
EVERGREEN      LGT RAIN  88  76  67 E10       29.93F HX  99
FLORALA        PTCLDY    95  73  48 NE8       29.92F HX 104
GREENVILLE     NOT AVBL

$$

FLZ001>006-302100-
WESTERN FLORIDA PANHANDLE


CITY           SKY/WX    TMP DP  RH WIND       PRES   REMARKS
CRESTVIEW      MOSUNNY   97  76  50 N6        29.92F HX 110
DESTIN         PTSUNNY   83  76  79 CALM      29.91F
DUKE FIELD     MOSUNNY   95  75  51 N10       29.90F HX 107
MARY ESTHER    MOSUNNY   88  77  69 S10       29.90F HX 101
MILTON         MOCLDY   100  78  49 VRB3      29.91F HX 118
PENSACOLA      MOSUNNY   96  74  48 NW9       29.91F HX 107
NAS PENSACOLA  PTSUNNY   92  79  65 S10       29.91F HX 108
VALPARAISO     PTSUNNY   86  78  78 S12       29.91F HX  98

$$

...MARINE OBSERVATIONS...

STATION/POSITION TIME  SKY/WX   TEMP    WIND        PRES    VSBY
                                AIR SEA DIR/SP/G
                 (UTC)          (F)     (DEG/KT/KT) (MB)    (MI)
PASCAGOULA       1900            94     350/  9/ 12 1014.4F
PETIT BOIS ISL   1900            92     330/  6/  8 1015.1F
E DAUPHIN ISLAND 2000            90      10/  7/  8 1013.2F
MIDDLE BAY LIGHT 1900            89     350/ 11     1013.9R
USCG MOBILE BAY  1900            92 84   10/  6/ 13 1013.2F
STATE DOCKS      1900            95 84              1013.8F
MEAHER PARK      2000            94     340/  5     1011.5F
12 S ORANGE BCH  1950            86 87  220/  8/ 10 1012.7F
WVE H/P(F/S)=  1/ 6

PENSACOLA BAY    1900            89 85  180/  8/ 10 1013.7F
64 S DAUPHIN ISL 1950            87 92  340/  2/  4 1014.7F
WVE H/P(F/S)=  1/ 3

67 S FORT MORGAN 1930            87        CALM     1014.6F
115 SE PENSACOLA 1950            82 87  270/ 10/ 12 1014.9F
WVE H/P(F/S)=  2/ 5

MID GULF/42001   1950            83 86  210/ 10/ 14 1016.7F
WVE H/P(F/S)=  1/ 4

EAST GULF/42003  1950            82 85  260/ 12/ 14 1015.7F
WVE H/P(F/S)=  2/10


$$

...NEARBY LOCATIONS

CITY           SKY/WX    TMP DP  RH WIND       PRES   REMARKS
GULFPORT       PTSUNNY   96  75  50 N7        29.93F HX 108
BILOXI         PTSUNNY   94  77  57 VRB1      29.93F HX 109
PASCAGOULA     MOSUNNY   95  75  52 CALM      29.93F HX 107
HATTIESBURG    PTSUNNY   93  76  57 W9        29.94F THUNDER HX 105
LAUREL         MOSUNNY   86  77  74 SW7       29.96F THUNDER HX  97
MERIDIAN       MOSUNNY   95  76  53 N13G21    29.95F HX 108
MERIDIAN NAS   MOSUNNY   95  76  53 N9        29.97F HX 108
MONTGOMERY     MOSUNNY   98  73  44 NW6       29.90F HX 108
MAXWELL AFB    MOSUNNY   98  74  45 NE9       29.90F HX 109
TROY           MOSUNNY   99  73  43 N10       29.92F HX 109
FORT RUCKER    PTSUNNY   97  73  45 VRB3      29.89F HX 107
DALEVILLE      SUNNY     96  77  55 VRB6      29.90F HX 111
DOTHAN         SUNNY     96  74  48 CALM      29.94F HX 107

$$

...OTHER SURROUNDING LOCATIONS...

CITY           SKY/WX    TMP DP  RH WIND       PRES   REMARKS
BIRMINGHAM     MOSUNNY   94  74  52 N9        29.99F HX 104
TUSCALOOSA     MOSUNNY   96  75  50 N14       29.96F HX 108
COLUMBUS GA    PTSUNNY   88  73  62 CALM      29.91F THUNDER HX  96
PANAMA CITY    NOT AVBL
TALLAHASSEE    PTSUNNY   86  75  69 SW16      29.91F THUNDER HX  95
BATON ROUGE    MOSUNNY   97  73  45 VRB5      29.95F HX 107
NEW ORLEANS    PTSUNNY   96  72  45 N7        29.96F HX 104
SLIDELL        MOSUNNY   95  80  61 SE5       29.94F HX 114
JACKSON        PTSUNNY  101  71  38 N16G23    29.96F HX 109
MCCOMB         CLOUDY    80  72  76 NW16G31   30.03R

$$

...SURROUNDING MARINE OBSERVATIONS...

STATION/POSITION TIME  SKY/WX   TEMP    WIND        PRES    VSBY
                                AIR SEA DIR/SP/G
                 (UTC)          (F)     (DEG/KT/KT) (MB)    (MI)
WAVELAND         1900            91 89  360/  2/  3 1015.0F
PASCAGOULA RGN A 1900            95     350/  6/ 10 1014.0F
PASCAGOULA PORT  1900               88                N/A
GRAND ISLE       1900            89 89  350/  4/  5 1016.1F
SOUTHWEST PASS   2000            87     240/  3/  4 1015.4F
PILOT STATION E  1900            96 87  310/  4/  6 1016.3S
SHELL BEACH      1900            89 89   10/  5/  5 1014.8F
PANAMA CITY      1900            85 87  240/ 12/ 13 1012.9F
APALACHICOLA     1900            81 88  210/ 17/ 22 1014.2F
TYNDALL TOWER C  2000            79     240/ 24/ 26 1014.2F
S APLCHCLA/42036 1950            83 85  270/ 12/ 14 1014.4F
WVE H/P(F/S)=  3/ 5


$$




USA.gov is the U.S. government's official web portal to all federal, state and local government web resources and services.